Time,TemperatureF,DewpointF,PressureIn,WindDirection,WindDirectionDegrees,WindSpeedMPH,WindSpeedGustMPH,Humidity,HourlyPrecipIn,Conditions,Clouds,dailyrainin,SolarRadiationWatts/m^2,SoftwareType,DateUTC
2013-02-20 00:00:00,28.0,25.0,30.20,NNE,26,0.0,-999.0,87,-99.99,,,-99.99,0.000000,,2013-02-20 06:00:00,
2013-02-20 00:52:00,28.0,25.0,30.20,NNE,26,0.0,-999.0,87,-99.99,,,-99.99,0.000000,,2013-02-20 06:52:00,
2013-02-20 02:00:00,25.0,24.0,30.19,NNE,14,0.0,-999.0,93,-99.99,,,-99.99,0.000000,,2013-02-20 08:00:00,
2013-02-20 02:52:00,25.0,24.0,30.19,NNE,14,0.0,-999.0,93,-99.99,,,-99.99,0.000000,,2013-02-20 08:52:00,
2013-02-20 03:00:00,25.0,24.0,30.18,NNW,345,0.0,-999.0,97,-99.99,,,-99.99,0.020000,,2013-02-20 09:00:00,
2013-02-20 03:52:00,25.0,24.0,30.18,NNW,345,0.0,-999.0,97,-99.99,,,-99.99,0.020000,,2013-02-20 09:52:00,
2013-02-20 04:00:00,25.0,24.0,30.19,NNW,337,0.0,-999.0,96,-99.99,,,-99.99,0.010000,,2013-02-20 10:00:00,
2013-02-20 04:52:00,25.0,24.0,30.19,NNW,337,0.0,-999.0,96,-99.99,,,-99.99,0.010000,,2013-02-20 10:52:00,
2013-02-20 05:00:00,24.0,24.0,30.21,NNE,33,0.0,-999.0,97,-99.99,,,-99.99,0.030000,,2013-02-20 11:00:00,
2013-02-20 05:52:00,24.0,24.0,30.21,NNE,33,0.0,-999.0,97,-99.99,,,-99.99,0.030000,,2013-02-20 11:52:00,
2013-02-20 06:00:00,22.0,21.0,30.22,SSE,166,0.0,-999.0,97,-99.99,,,-99.99,0.030000,,2013-02-20 12:00:00,
2013-02-20 06:53:00,22.0,21.0,30.22,SSE,166,0.0,-999.0,97,-99.99,,,-99.99,0.030000,,2013-02-20 12:53:00,
2013-02-20 08:00:00,32.0,20.0,30.22,North,3,3.0,-999.0,61,-99.99,,,-99.99,99.300003,,2013-02-20 14:00:00,
2013-02-20 08:52:00,32.0,20.0,30.22,North,3,3.0,-999.0,61,-99.99,,,-99.99,99.300003,,2013-02-20 14:52:00,
2013-02-20 09:00:00,33.0,19.0,30.23,NNE,26,6.0,-999.0,56,-99.99,,,-99.99,237.899994,,2013-02-20 15:00:00,
2013-02-20 09:52:00,33.0,19.0,30.23,NNE,26,6.0,-999.0,56,-99.99,,,-99.99,237.899994,,2013-02-20 15:52:00,
2013-02-20 10:00:00,35.0,16.0,30.23,NNE,28,5.0,-999.0,46,-99.99,,,-99.99,351.899994,,2013-02-20 16:00:00,
2013-02-20 10:52:00,35.0,16.0,30.23,NNE,28,5.0,-999.0,46,-99.99,,,-99.99,351.899994,,2013-02-20 16:52:00,
2013-02-20 11:00:00,38.0,16.0,30.25,NNE,15,6.0,-999.0,41,-99.99,,,-99.99,480.600006,,2013-02-20 17:00:00,
2013-02-20 11:52:00,38.0,16.0,30.25,NNE,15,6.0,-999.0,41,-99.99,,,-99.99,480.600006,,2013-02-20 17:52:00,
2013-02-20 12:00:00,37.0,16.0,30.22,North,351,4.0,-999.0,41,-99.99,,,-99.99,306.000000,,2013-02-20 18:00:00,
2013-02-20 12:52:00,37.0,16.0,30.22,North,351,4.0,-999.0,41,-99.99,,,-99.99,306.000000,,2013-02-20 18:52:00,
2013-02-20 13:00:00,37.0,16.0,30.23,North,358,5.0,-999.0,41,-99.99,,,-99.99,237.500000,,2013-02-20 19:00:00,
2013-02-20 13:52:00,37.0,16.0,30.23,North,358,5.0,-999.0,41,-99.99,,,-99.99,237.500000,,2013-02-20 19:52:00,
2013-02-20 14:00:00,37.0,15.0,30.21,North,2,4.0,-999.0,40,-99.99,,,-99.99,149.199997,,2013-02-20 20:00:00,
2013-02-20 14:52:00,37.0,15.0,30.21,North,2,4.0,-999.0,40,-99.99,,,-99.99,149.199997,,2013-02-20 20:52:00,
2013-02-20 15:00:00,37.0,16.0,30.21,NNE,20,3.0,-999.0,42,-99.99,,,-99.99,97.500000,,2013-02-20 21:00:00,
2013-02-20 15:52:00,37.0,16.0,30.21,NNE,20,3.0,-999.0,42,-99.99,,,-99.99,97.500000,,2013-02-20 21:52:00,
2013-02-20 22:00:00,36.0,19.0,30.17,NNE,28,4.0,-999.0,51,-99.99,,,-99.99,0.000000,,2013-02-21 04:00:00,
2013-02-20 22:52:00,36.0,19.0,30.17,NNE,28,4.0,-999.0,51,-99.99,,,-99.99,0.000000,,2013-02-21 04:52:00,
2013-02-20 23:00:00,35.0,19.0,30.16,NE,43,3.0,-999.0,51,-99.99,,,-99.99,0.000000,,2013-02-21 05:00:00,